METAR Formatted Surface Weather Observation
Issued by NWS

Home | Current Version | Previous Version | Text Only | Print | Product List | Glossary On
Versions: 1 2 3 4 5 6 7 8 9 10 11 12 13 14 15 16 17 18 19 20 21 22 23 24 25 26 27 28 29 30 31 32 33 34 35 36 37 38 39 40 41 42 43 44 45 46 47 48 49 50
142
SAUS46 KMFR 242057
MTRSXT
METAR KSXT 242056Z AUTO 18012G19KT M1/4SM FG VV002 02/02 A2996 RMK
AO2 UPB06E22SNB11E20B22E52 SLP159 P0002 60003 T00170017 51014



USA.gov is the U.S. government's official web portal to all federal, state and local government web resources and services.